Hourly Weather Roundup
Issued by NWS Central Illinois

Home | Current Version | Previous Version | Text Only | Print | Product List | Glossary On
Versions: 1 2 3 4 5 6 7 8 9 10 11 12 13 14 15 16 17 18 19 20 21 22 23 24 25 26 27 28 29 30 31 32 33 34 35 36 37 38 39 40 41 42 43 44 45 46 47 48 49 50
599
NZUS43 KILX 311910
HWRILX

AREA WEATHER ROUNDUP
NATIONAL WEATHER SERVICE, LINCOLN IL
200 PM CDT TUE MAY 31 2016


CITY           SKY/WX    TMP DP  RH WIND       PRES   REMARKS
BLOOMINGTON    CLOUDY    73  60  63 W9        29.98F
CHAMPAIGN      MOSUNNY   84  59  42 W9G21     29.95F HX  84
DANVILLE       CLOUDY    87  55  32 S15G21    29.93F HX  86
DECATUR        CLOUDY    80  63  55 W6        29.95F HX  81
EFFINGHAM      CLOUDY    86  60  41 SE7       29.96F HX  85
FLORA          PTSUNNY   88  61  39 S10G16    29.94F HX  88
GALESBURG      CLOUDY    79  63  59 SE8       29.95F HX  80
JACKSONVILLE   PTSUNNY   81  64  55 S9G16     29.95F HX  82
LACON          CLOUDY    71  62  72 NE8       29.99R
LAWRENCEVILLE  CLOUDY    88  55  32 S13       29.95F HX  86
LITCHFIELD     MOSUNNY   76  64  65 CALM      29.96F
$$


CITY           SKY/WX    TMP DP  RH WIND       PRES   REMARKS
LINCOLN        CLOUDY    71  66  84 CALM      29.95F
MACOMB         MOSUNNY   83  60  45 S13G22    29.97F HX  83
MATTOON        PTSUNNY   83  57  41 SE9       29.94F HX  82
MT CARMEL AP   CLOUDY    87  55  33 SE12      29.94F HX  85
OLNEY-NOBLE AP CLOUDY    86  59  39 SE13      29.95S HX  85
PARIS          CLOUDY    87  59  37 S9G16     29.97F HX  86
PEORIA         CLOUDY    74  60  61 SW3       29.95F
PONTIAC        CLOUDY    80  64  57 W22       29.97R HX  81
RANTOUL        NOT AVBL
ROBINSON       MOSUNNY   86  61  42 S8G16     29.96F HX  86
SPRINGFIELD    CLOUDY    80  65  59 S6        29.95F HX  82
TAYLORVILLE    PTSUNNY   80  64  56 CALM      29.95F HX  82
$$

...REGIONAL REPORTS...


CITY           SKY/WX    TMP DP  RH WIND       PRES   REMARKS
CHICAGO O`HARE PTSUNNY   81  59  47 E10       29.96S HX  81
KANKAKEE       MOSUNNY   89  58  35 S13       29.94F HX  88
MOLINE         CLOUDY    80  59  48 S7        29.93F HX  81
MOUNT STERLING PTSUNNY   79  62  57 S7        29.94F HX  80
MOUNT VERNON   CLOUDY    84  63  48 S10G16    29.95F HX  85
PITTSFIELD     MOSUNNY   79  61  54 SE8       29.96F HX  80
QUINCY         PTSUNNY   80  58  46 S12       29.94F HX  80
ROCKFORD       TSTM      66  61  84 CALM      30.06R
$$


CITY           SKY/WX    TMP DP  RH WIND       PRES   REMARKS
BURLINGTON     CLOUDY    80  60  50 S10       29.93F HX  81
CEDAR RAPIDS   CLOUDY    78  61  55 S12       29.91F HX  80
DES MOINES     CLOUDY    80  60  50 SW16      29.89F HX  81
KIRKSVILLE     CLOUDY    77  62  59 S12       29.94F
OTTUMWA        NOT AVBL
ST LOUIS       PTSUNNY   81  63  54 CALM      29.96F HX  82
$$


CITY           SKY/WX    TMP DP  RH WIND       PRES   REMARKS
TERRE HAUTE    CLOUDY    86  57  37 S6G16     29.96F HX  85
EVANSVILLE     CLOUDY    86  58  38 S8        29.95F HX  85
INDIANAPOLIS   MOSUNNY   83  58  42 SW12      29.97F HX  83
LAFAYETTE      CLOUDY    85  54  34 VRB7      29.94F HX  83
MADISON        LGT RAIN  67  63  87 S12       30.01S
MILWAUKEE      PTSUNNY   68  55  63 E9        30.01S
$$






USA.gov is the U.S. government's official web portal to all federal, state and local government web resources and services.